Weather History for Aurora, OR

Change the Weather History Date:

Wednesday, January 29, 2014

  Actual Average Record
Temperature  
Mean Temperature 47 °F -  
Max Temperature 53 °F - 57 °F (1999)
Min Temperature 41 °F - 25 °F (2007)
Degree Days  
Heating Degree Days 18    
Month to date heating degree days 695  
Since 1 July heating degree days 2732  
Cooling Degree Days 0    
Month to date cooling degree days 0  
Year to date cooling degree days 0  
Moisture  
Dew Point 43 °F    
Average Humidity 86    
Maximum Humidity 100    
Minimum Humidity 71    
Precipitation  
Precipitation 0.16 in - 1.04 in (2003)
Month to date precipitation 2.34  
Year to date precipitation 2.34  
Sea Level Pressure  
Sea Level Pressure 29.89 in    
Wind  
Wind Speed 11 mph (SSW)    
Max Wind Speed 25 mph    
Max Gust Speed 36 mph    
Visibility 8 miles    
Events Rain    
T = Trace of Precipitation, MM = Missing Value Source: NWS Daily Summary

Daily Weather History Graph

Daily Weather History Graph

Search for Another Location

Airport:

Trip Planner

Search our weather history database for the weather conditions in past years. The results will help you decide how hot, cold, wet, or windy it might be!

Date:

Astronomy

Jan. 29, 2014 Rise Set
Actual Time 7:34 AM PST 5:14 PM PST
Civil Twilight 7:03 AM PST 5:46 PM PST
Nautical Twilight 6:27 AM PST 6:21 PM PST
Astronomical Twilight 5:52 AM PST 6:56 PM PST
Moon 6:16 AM PST (1/29) 4:20 PM PST (1/29)
Length of Visible Light 10h 42m
Length of Day
9h 39m
Waning Crescent, 2% of the Moon is Illuminated
Jan 29
Waning Crescent
Jan 30
New
Feb 6
First Quarter
Feb 14
Full
Feb 22
Last Quarter

Hourly Weather History & Observations

Time (PST) Temp. Windchill Dew Point Humidity Pressure Visibility Wind Dir Wind Speed Gust Speed Precip Events Conditions
12:53 AM 41.0 °F - 41.0 °F 100% 29.96 in 5.0 mi Calm Calm - 0.01 in   Overcast
1:53 AM 41.0 °F - 41.0 °F 100% 29.95 in 2.5 mi Calm Calm - 0.02 in Rain Light Rain
2:00 AM 41.0 °F - 41.0 °F 100% 29.94 in 3.0 mi Calm Calm - 0.00 in Rain Light Rain
2:53 AM 41.0 °F 38.0 °F 41.0 °F 100% 29.94 in 4.0 mi SSE 4.6 mph - 0.02 in Rain Light Rain
3:53 AM 42.1 °F 39.2 °F 42.1 °F 100% 29.94 in 5.0 mi South 4.6 mph - 0.05 in Rain Light Rain
4:26 AM 43.0 °F 38.8 °F 43.0 °F 100% 29.93 in 5.0 mi SSE 6.9 mph - 0.03 in Rain Light Rain
4:34 AM 43.0 °F 38.2 °F 43.0 °F 100% 29.92 in 5.0 mi SSE 8.1 mph - 0.04 in Rain Light Rain
4:53 AM 44.1 °F 38.1 °F 44.1 °F 100% 29.89 in 4.0 mi SSE 11.5 mph - 0.04 in Rain Light Rain
5:19 AM 46.9 °F - 46.0 °F 97% 29.89 in 10.0 mi South 8.1 mph - 0.00 in   Overcast
5:53 AM 50.0 °F - 46.9 °F 89% 29.89 in 10.0 mi South 10.4 mph 18.4 mph 0.00 in   Overcast
6:53 AM 50.0 °F - 48.0 °F 93% 29.88 in 10.0 mi South 12.7 mph 17.3 mph N/A   Overcast
7:53 AM 51.1 °F - 46.9 °F 86% 29.88 in 10.0 mi South 17.3 mph - N/A   Overcast
8:53 AM 51.1 °F - 46.9 °F 86% 29.86 in 10.0 mi South 18.4 mph 25.3 mph N/A   Partly Cloudy
9:53 AM 52.0 °F - 46.9 °F 83% 29.84 in 10.0 mi South 21.9 mph 28.8 mph N/A   Mostly Cloudy
10:13 AM 52.0 °F - 46.0 °F 80% 29.84 in 10.0 mi SSW 16.1 mph 25.3 mph N/A   Overcast
10:53 AM 50.0 °F - 46.9 °F 89% 29.84 in 4.0 mi South 12.7 mph 27.6 mph 0.01 in Rain Light Rain
11:19 AM 51.1 °F - 46.9 °F 86% 29.83 in 7.0 mi South 19.6 mph 27.6 mph 0.01 in Rain Light Rain
11:53 AM 52.0 °F - 46.9 °F 83% 29.83 in 10.0 mi SSW 17.3 mph 28.8 mph 0.01 in   Overcast
12:53 PM 53.1 °F - 45.0 °F 74% 29.79 in 10.0 mi SSW 18.4 mph 32.2 mph N/A   Overcast
1:14 PM 53.1 °F - 45.0 °F 74% 29.79 in 10.0 mi SSW 17.3 mph 28.8 mph N/A   Overcast
1:39 PM 52.0 °F - 46.0 °F 80% 29.79 in 10.0 mi SSW 18.4 mph 24.2 mph 0.00 in Rain Light Rain
1:49 PM 51.8 °F - 46.4 °F 82% 29.79 in 10.0 mi SW 17.3 mph 27.6 mph 0.00 in Rain Light Rain
1:53 PM 53.1 °F - 46.9 °F 80% 29.80 in 10.0 mi SSW 12.7 mph 27.6 mph 0.00 in Rain Light Rain
2:10 PM 52.0 °F - 46.0 °F 80% 29.80 in 10.0 mi SW 19.6 mph 33.4 mph 0.00 in   Overcast
2:53 PM 52.0 °F - 45.0 °F 77% 29.82 in 10.0 mi WSW 11.5 mph 21.9 mph 0.00 in   Mostly Cloudy
3:14 PM 51.1 °F - 42.1 °F 71% 29.83 in 10.0 mi WSW 16.1 mph 26.5 mph N/A   Scattered Clouds
3:53 PM 50.0 °F - 43.0 °F 77% 29.85 in 10.0 mi SW 13.8 mph 21.9 mph N/A   Mostly Cloudy
4:53 PM 48.9 °F - 42.1 °F 77% 29.88 in 10.0 mi SW 9.2 mph 25.3 mph N/A   Overcast
5:53 PM 48.0 °F - 39.9 °F 74% 29.91 in 10.0 mi SSW 8.1 mph 19.6 mph N/A   Overcast
6:53 PM 46.9 °F - 39.0 °F 74% 29.93 in 10.0 mi SW 13.8 mph 26.5 mph N/A   Overcast
7:53 PM 46.0 °F 40.6 °F 39.0 °F 76% 29.95 in 10.0 mi SW 11.5 mph 19.6 mph N/A   Overcast
8:53 PM 46.0 °F 40.2 °F 37.9 °F 73% 29.96 in 10.0 mi SSW 12.7 mph - N/A   Overcast
9:53 PM 46.0 °F 41.0 °F 37.9 °F 73% 29.98 in 10.0 mi SW 10.4 mph - N/A   Overcast
10:03 PM 46.0 °F 41.4 °F 37.9 °F 73% 29.98 in 10.0 mi SW 9.2 mph - N/A   Overcast
10:26 PM 44.1 °F 38.1 °F 39.9 °F 85% 29.98 in 10.0 mi SSW 11.5 mph - 0.00 in   Overcast
10:53 PM 44.1 °F 39.0 °F 39.9 °F 85% 29.99 in 10.0 mi SSW 9.2 mph - 0.00 in   Overcast
11:53 PM 45.0 °F 40.6 °F 39.0 °F 80% 29.99 in 10.0 mi SSW 8.1 mph - N/A   Overcast